Location: St. Louis
(38.6270°N, 90.1994°W)
Time: 09:41:25
(UTC-06:00)

Vanguard 1 - Pass Details

Date: 08 December 2021
Orbit: 652 x 3830 km, 34.2° (Epoch: 22 January)

Event Time Altitude Azimuth Distance (km) Brightness Sun altitude
Rises 22:05:59 0° 233° (SW) 6,213 14.3 -62.3°
Reaches altitude 10° 22:09:32 10° 230° (SW) 5,542 13.9 -62.9°
Enters shadow 22:13:48 23° 224° (SW) 4,847 13.5 -63.6°
Exits shadow 22:54:32 - 79° (E) 7,357 14.4 -69.9°
Sets 22:55:36 0° 79° (E) 7,536 14.5 -70.0°
